TimeCDT,TemperatureF,Dew PointF,Humidity,Sea Level PressureIn,VisibilityMPH,Wind Direction,Wind SpeedMPH,Gust SpeedMPH,PrecipitationIn,Events,Conditions,WindDirDegrees,DateUTC
12:15 AM,73.4,68.0,83,29.83,10.0,NW,4.6,-,N/A,,Clear,310,2012-06-05 05:15:00
12:35 AM,73.4,68.0,83,29.83,10.0,NW,4.6,-,N/A,,Clear,310,2012-06-05 05:35:00
12:55 AM,73.4,68.0,83,29.83,10.0,NW,3.5,-,N/A,,Clear,310,2012-06-05 05:55:00
1:15 AM,71.6,68.0,88,29.84,10.0,North,4.6,-,N/A,,Clear,360,2012-06-05 06:15:00
1:35 AM,71.6,66.2,83,29.84,10.0,North,4.6,-,N/A,,Clear,10,2012-06-05 06:35:00
1:55 AM,71.6,66.2,83,29.84,10.0,North,4.6,-,N/A,,Clear,10,2012-06-05 06:55:00
2:15 AM,71.6,66.2,83,29.84,10.0,NNE,5.8,-,N/A,,Clear,20,2012-06-05 07:15:00
2:35 AM,71.6,64.4,78,29.84,10.0,NNE,6.9,-,N/A,,Clear,30,2012-06-05 07:35:00
2:55 AM,71.6,64.4,78,29.84,10.0,NNE,5.8,-,N/A,,Clear,30,2012-06-05 07:55:00
3:15 AM,71.6,64.4,78,29.85,10.0,NNE,4.6,-,N/A,,Clear,20,2012-06-05 08:15:00
3:35 AM,69.8,64.4,83,29.85,10.0,North,4.6,-,N/A,,Clear,360,2012-06-05 08:35:00
3:55 AM,69.8,64.4,83,29.85,10.0,North,4.6,-,N/A,,Clear,10,2012-06-05 08:55:00
4:15 AM,69.8,64.4,83,29.85,10.0,North,4.6,-,N/A,,Clear,10,2012-06-05 09:15:00
4:35 AM,69.8,64.4,83,29.85,10.0,North,3.5,-,N/A,,Clear,10,2012-06-05 09:35:00
4:55 AM,66.2,62.6,88,29.85,10.0,Calm,Calm,-,N/A,,Clear,0,2012-06-05 09:55:00
5:15 AM,66.2,62.6,88,29.85,10.0,NNE,4.6,-,N/A,,Clear,30,2012-06-05 10:15:00
5:35 AM,68.0,62.6,83,29.85,10.0,North,4.6,-,N/A,,Clear,10,2012-06-05 10:35:00
5:55 AM,68.0,64.4,88,29.86,10.0,North,4.6,-,N/A,,Clear,10,2012-06-05 10:55:00
6:15 AM,66.2,62.6,88,29.87,10.0,NNE,5.8,-,N/A,,Clear,20,2012-06-05 11:15:00
6:35 AM,66.2,64.4,94,29.87,10.0,NNE,3.5,-,N/A,,Clear,30,2012-06-05 11:35:00
6:55 AM,68.0,64.4,88,29.88,10.0,NNE,4.6,-,N/A,,Clear,30,2012-06-05 11:55:00
7:15 AM,68.0,64.4,88,29.88,10.0,NE,6.9,-,N/A,,Clear,40,2012-06-05 12:15:00
7:35 AM,69.8,64.4,83,29.88,10.0,NE,6.9,-,N/A,,Clear,50,2012-06-05 12:35:00
8:15 AM,71.6,64.4,78,29.90,10.0,East,9.2,-,N/A,,Clear,80,2012-06-05 13:15:00
8:35 AM,73.4,64.4,73,29.90,10.0,ENE,12.7,-,N/A,,Clear,70,2012-06-05 13:35:00
8:55 AM,73.4,64.4,73,29.91,10.0,ENE,8.1,-,N/A,,Clear,70,2012-06-05 13:55:00
9:15 AM,75.2,64.4,69,29.91,10.0,East,8.1,-,N/A,,Clear,80,2012-06-05 14:15:00
9:35 AM,75.2,66.2,73,29.91,10.0,East,9.2,-,N/A,,Partly Cloudy,80,2012-06-05 14:35:00
9:55 AM,75.2,66.2,73,29.91,10.0,ENE,5.8,-,N/A,,Clear,70,2012-06-05 14:55:00
10:15 AM,77.0,66.2,69,29.91,10.0,ESE,6.9,-,N/A,,Partly Cloudy,110,2012-06-05 15:15:00
10:35 AM,78.8,66.2,65,29.90,10.0,ESE,8.1,-,N/A,,Scattered Clouds,110,2012-06-05 15:35:00
10:55 AM,78.8,66.2,65,29.90,10.0,East,9.2,-,N/A,,Scattered Clouds,90,2012-06-05 15:55:00
11:15 AM,78.8,66.2,65,29.90,10.0,East,8.1,-,N/A,,Clear,100,2012-06-05 16:15:00
11:35 AM,80.6,66.2,61,29.90,10.0,ESE,4.6,16.1,N/A,,Partly Cloudy,110,2012-06-05 16:35:00
11:55 AM,80.6,66.2,61,29.90,10.0,East,10.4,-,N/A,,Scattered Clouds,80,2012-06-05 16:55:00
12:15 PM,80.6,66.2,61,29.89,10.0,SE,6.9,-,N/A,,Mostly Cloudy,130,2012-06-05 17:15:00
12:35 PM,82.4,66.2,58,29.89,10.0,East,6.9,-,N/A,,Mostly Cloudy,100,2012-06-05 17:35:00
12:55 PM,-9999,-9999,N/A,-9999,-9999.0,North,-9999.0,-,N/A,,Unknown,0,2012-06-05 17:55:00
1:15 PM,82.4,64.4,54,29.87,10.0,East,3.5,-,N/A,,Mostly Cloudy,100,2012-06-05 18:15:00
1:35 PM,80.6,64.4,58,29.87,10.0,East,11.5,17.3,N/A,,Mostly Cloudy,80,2012-06-05 18:35:00
1:55 PM,82.4,64.4,54,29.86,10.0,East,8.1,-,N/A,,Mostly Cloudy,90,2012-06-05 18:55:00
2:15 PM,82.4,64.4,54,29.86,10.0,ENE,9.2,-,N/A,,Mostly Cloudy,70,2012-06-05 19:15:00
2:35 PM,82.4,64.4,54,29.86,10.0,ENE,9.2,-,N/A,,Mostly Cloudy,70,2012-06-05 19:35:00
2:55 PM,84.2,62.6,48,29.86,10.0,East,8.1,-,N/A,,Mostly Cloudy,80,2012-06-05 19:55:00
3:15 PM,82.4,62.6,51,29.86,10.0,East,8.1,-,N/A,,Mostly Cloudy,90,2012-06-05 20:15:00
3:35 PM,84.2,60.8,45,29.85,10.0,East,9.2,-,N/A,,Scattered Clouds,100,2012-06-05 20:35:00
3:55 PM,84.2,60.8,45,29.85,10.0,ESE,11.5,-,N/A,,Scattered Clouds,110,2012-06-05 20:55:00
4:15 PM,84.2,60.8,45,29.85,10.0,East,8.1,-,N/A,,Scattered Clouds,80,2012-06-05 21:15:00
4:35 PM,84.2,60.8,45,29.84,10.0,East,8.1,-,N/A,,Partly Cloudy,80,2012-06-05 21:35:00
4:55 PM,84.2,60.8,45,29.84,10.0,East,10.4,-,N/A,,Scattered Clouds,90,2012-06-05 21:55:00
5:15 PM,82.4,57.2,42,29.83,10.0,East,5.8,-,N/A,,Scattered Clouds,80,2012-06-05 22:15:00
5:35 PM,84.2,59.0,42,29.83,10.0,ENE,8.1,-,N/A,,Clear,70,2012-06-05 22:35:00
5:55 PM,82.4,57.2,42,29.82,10.0,East,9.2,18.4,N/A,,Scattered Clouds,90,2012-06-05 22:55:00
6:15 PM,84.2,57.2,40,29.82,10.0,East,10.4,-,N/A,,Scattered Clouds,90,2012-06-05 23:15:00
6:35 PM,84.2,57.2,40,29.82,10.0,East,11.5,-,N/A,,Clear,90,2012-06-05 23:35:00
6:55 PM,82.4,55.4,39,29.82,10.0,East,6.9,-,N/A,,Clear,90,2012-06-05 23:55:00
7:15 PM,82.4,55.4,39,29.83,10.0,East,9.2,-,N/A,,Clear,90,2012-06-06 00:15:00
7:35 PM,82.4,55.4,39,29.83,10.0,East,9.2,-,N/A,,Clear,90,2012-06-06 00:35:00
7:55 PM,80.6,53.6,39,29.85,10.0,ESE,8.1,-,N/A,,Clear,110,2012-06-06 00:55:00
8:15 PM,78.8,53.6,42,29.85,10.0,ESE,6.9,-,N/A,,Clear,120,2012-06-06 01:15:00
8:35 PM,77.0,53.6,44,29.86,10.0,East,4.6,-,N/A,,Clear,100,2012-06-06 01:35:00
8:55 PM,75.2,53.6,47,29.86,10.0,East,5.8,-,N/A,,Clear,100,2012-06-06 01:55:00
9:35 PM,75.2,53.6,47,29.88,10.0,East,3.5,-,N/A,,Clear,100,2012-06-06 02:35:00
9:55 PM,73.4,53.6,50,29.88,10.0,East,3.5,-,N/A,,Clear,80,2012-06-06 02:55:00
10:15 PM,71.6,53.6,53,29.88,10.0,ENE,4.6,-,N/A,,Clear,60,2012-06-06 03:15:00
10:35 PM,71.6,55.4,57,29.89,10.0,NE,3.5,-,N/A,,Clear,40,2012-06-06 03:35:00
10:55 PM,69.8,55.4,60,29.88,10.0,ENE,5.8,-,N/A,,Clear,60,2012-06-06 03:55:00
11:35 PM,69.8,53.6,56,29.88,10.0,ENE,6.9,-,N/A,,Clear,70,2012-06-06 04:35:00
11:55 PM,69.8,51.8,53,29.89,10.0,ENE,5.8,-,N/A,,Clear,70,2012-06-06 04:55:00